Weather History for Honolulu, HI

Change the Weather History Date:

Sunday, October 3, 2010

  Actual Average Record
Temperature  
Mean Temperature 81 °F 81 °F  
Max Temperature 87 °F 88 °F 92 °F (1967)
Min Temperature 74 °F 74 °F 65 °F (1894)
Degree Days  
Heating Degree Days 0 0  
Month to date heating degree days 0 0  
Since 1 July heating degree days 0 0  
Cooling Degree Days 16 16  
Month to date cooling degree days 45 48  
Year to date cooling degree days 3540 3527  
Growing Degree Days 30 (Base 50)    
Moisture  
Dew Point 65 °F    
Average Humidity 63    
Maximum Humidity 79    
Minimum Humidity 46    
Precipitation  
Precipitation T in 0.04 in 5.56 in (1989)
Month to date precipitation 0.02 0.12  
Year to date precipitation 5.05 9.72  
Snow  
Snow 0.00 in - - ()
Month to date snowfall 0.0  
Since 1 July snowfall 0.0  
Since 1 September snowfall 0.0  
Snow Depth 0.00 in    
Sea Level Pressure  
Sea Level Pressure 30.04 in    
Wind  
Wind Speed 13 mph (ENE)    
Max Wind Speed 25 mph    
Max Gust Speed 32 mph    
Visibility 10 miles    
Events      
T = Trace of Precipitation, MM = Missing Value Source: NWS Daily Summary

Daily Weather History Graph

Daily Weather History Graph

Search for Another Location

Airport:

Trip Planner

Search our weather history database for the weather conditions in past years. The results will help you decide how hot, cold, wet, or windy it might be!

Date:

Astronomy

Oct. 03, 2010 Rise Set
Actual Time 6:23 AM HST 6:17 PM HST
Civil Twilight 6:01 AM HST 6:39 PM HST
Nautical Twilight 5:35 AM HST 7:05 PM HST
Astronomical Twilight 5:09 AM HST 7:31 PM HST
Moon 2:08 AM HST (10/3) 3:18 PM HST (10/3)
Length of Visible Light 12h 38m
Length of Day
11h 53m
Waning Crescent, 21% of the Moon is Illuminated
Oct 3
Waning Crescent
Oct 7
New
Oct 14
First Quarter
Oct 22
Full
Oct 30
Last Quarter

Hourly Weather History & Observations

Time (HST) Temp. Heat Index Dew Point Humidity Pressure Visibility Wind Dir Wind Speed Gust Speed Precip Events Conditions
12:53 AM 75.9 °F - 66.9 °F 74% 30.05 in 10.0 mi NE 3.5 mph - N/A   Scattered Clouds
1:53 AM 77.0 °F - 66.9 °F 71% 30.04 in 10.0 mi Variable 5.8 mph - N/A   Scattered Clouds
2:53 AM 75.9 °F - 66.9 °F 74% 30.03 in 10.0 mi Variable 4.6 mph - N/A   Scattered Clouds
3:53 AM 75.9 °F - 66.0 °F 71% 30.02 in 10.0 mi NE 6.9 mph - N/A   Scattered Clouds
4:53 AM 75.0 °F - 66.0 °F 73% 30.02 in 10.0 mi Variable 3.5 mph - N/A   Scattered Clouds
5:53 AM 73.9 °F - 66.0 °F 76% 30.04 in 10.0 mi East 4.6 mph - N/A   Scattered Clouds
6:53 AM 77.0 °F - 64.9 °F 66% 30.05 in 10.0 mi ENE 8.1 mph - N/A   Scattered Clouds
7:53 AM 79.0 °F - 66.9 °F 66% 30.06 in 10.0 mi NE 9.2 mph - N/A   Scattered Clouds
8:53 AM 82.0 °F 84.1 °F 66.0 °F 58% 30.07 in 10.0 mi NE 13.8 mph 20.7 mph N/A   Scattered Clouds
9:53 AM 84.0 °F 85.4 °F 64.0 °F 51% 30.07 in 10.0 mi ENE 19.6 mph 26.5 mph N/A   Scattered Clouds
10:53 AM 84.0 °F 85.8 °F 64.9 °F 53% 30.07 in 10.0 mi ENE 17.3 mph 26.5 mph 0.00 in   Scattered Clouds
11:53 AM 87.1 °F 88.3 °F 64.0 °F 46% 30.05 in 10.0 mi East 18.4 mph 26.5 mph N/A   Scattered Clouds
12:53 PM 84.9 °F 86.6 °F 64.9 °F 51% 30.03 in 10.0 mi East 12.7 mph - 0.00 in   Scattered Clouds
1:53 PM 86.0 °F 87.6 °F 64.9 °F 49% 30.01 in 10.0 mi ENE 23.0 mph 28.8 mph N/A   Scattered Clouds
2:53 PM 84.0 °F 85.8 °F 64.9 °F 53% 29.99 in 10.0 mi ENE 21.9 mph 27.6 mph 0.00 in   Mostly Cloudy
3:53 PM 84.0 °F 85.4 °F 64.0 °F 51% 29.99 in 10.0 mi ENE 20.7 mph 26.5 mph N/A   Partly Cloudy
4:53 PM 82.9 °F 84.0 °F 63.0 °F 51% 29.99 in 10.0 mi ENE 18.4 mph 23.0 mph N/A   Partly Cloudy
5:53 PM 81.0 °F 82.5 °F 64.0 °F 56% 30.01 in 10.0 mi NE 17.3 mph 21.9 mph N/A   Partly Cloudy
6:53 PM 79.0 °F - 64.0 °F 60% 30.02 in 10.0 mi ENE 13.8 mph 27.6 mph N/A   Partly Cloudy
7:53 PM 79.0 °F - 66.9 °F 66% 30.04 in 10.0 mi East 13.8 mph - N/A   Partly Cloudy
8:53 PM 78.1 °F - 64.9 °F 64% 30.05 in 10.0 mi ENE 15.0 mph - N/A   Partly Cloudy
9:53 PM 78.1 °F - 66.0 °F 66% 30.06 in 10.0 mi ENE 9.2 mph - N/A   Partly Cloudy
10:53 PM 78.1 °F - 64.0 °F 62% 30.05 in 10.0 mi ENE 12.7 mph 20.7 mph N/A   Partly Cloudy
11:53 PM 78.1 °F - 64.0 °F 62% 30.04 in 10.0 mi ENE 12.7 mph - N/A   Partly Cloudy